Lapeer, MI

1:55 AM EDT on July 24, 2017 (GMT -0400)
Lapeer

Weather History for KD95 - August, 2013

Change the Weather History Date:

Friday, August 30, 2013

  Actual Average (KFNT) Record (KFNT)
Temperature  
Mean Temperature 74 °F -  
Max Temperature 86 °F 79 °F 96 °F (1953)
Min Temperature 61 °F 58 °F 38 °F (1976)
Cooling Degree Days 8    
Growing Degree Days 24 (Base 50)    
Moisture  
Dew Point 66 °F    
Average Humidity 79    
Maximum Humidity 98    
Minimum Humidity 48    
Precipitation  
Precipitation 0.60 in - - ()
Sea Level Pressure  
Sea Level Pressure 29.89 in    
Wind  
Wind Speed 4 mph (SW)    
Max Wind Speed 21 mph    
Max Gust Speed 30 mph    
Visibility 7 miles    
Events Fog , Rain    
Averages and records for this station are not official NWS values.
T = Trace of Precipitation, MM = Missing Value Source: NWS Daily Summary

Daily Weather History Graph

Daily Weather History Graph

Search for Another Location

Airport or City:

Trip Planner

Search our weather history database for the weather conditions in past years. The results will help you decide how hot, cold, wet, or windy it might be!

Date:

Astronomy

Aug. 30, 2013 Rise Set
Actual Time 6:55 AM EDT 8:10 PM EDT
Civil Twilight 6:26 AM EDT 8:40 PM EDT
Nautical Twilight 5:50 AM EDT 9:15 PM EDT
Astronomical Twilight 5:13 AM EDT 9:52 PM EDT
Moon 1:28 AM EDT (8/30) 4:30 PM EDT (8/30)
Length of Visible Light 14h 14m
Length of Day
13h 15m
Waning Crescent, 29% of the Moon is Illuminated
Aug 30
Waning Crescent
Sep 5
New
Sep 12
First Quarter
Sep 19
Full
Sep 26
Last Quarter

Hourly Weather History & Observations

Time (EDT) Temp. Heat Index Dew Point Humidity Pressure Visibility Wind Dir Wind Speed Gust Speed Precip Events Conditions
12:13 AM 65.7 °F - 64.8 °F 97% 30.02 in 10.0 mi Calm Calm - N/A   Clear
12:34 AM 64.8 °F - 63.5 °F 96% 30.02 in 7.0 mi Calm Calm - N/A   Clear
12:53 AM 63.9 °F - 63.0 °F 97% 30.03 in 5.0 mi Calm Calm - N/A   Clear
1:13 AM 64.9 °F - 64.2 °F 98% 30.03 in 5.0 mi Calm Calm - N/A   Clear
1:34 AM 64.4 °F - 63.5 °F 97% 30.02 in 5.0 mi Calm Calm - N/A   Clear
1:53 AM 63.9 °F - 63.0 °F 97% 30.01 in 7.0 mi Calm Calm - N/A   Clear
2:13 AM 63.3 °F - 62.4 °F 97% 30.01 in 4.0 mi Calm Calm - N/A   Clear
2:34 AM 63.0 °F - 62.2 °F 97% 30.01 in 3.0 mi Calm Calm - N/A   Clear
2:53 AM 63.1 °F - 62.6 °F 98% 30.01 in 3.0 mi Calm Calm - N/A   Clear
3:13 AM 63.5 °F - 62.6 °F 97% 30.00 in 1.5 mi Calm Calm - N/A   Mist
3:34 AM 61.9 °F - 61.2 °F 97% 30.00 in 1.8 mi Calm Calm - N/A   Mist
3:53 AM 62.2 °F - 61.7 °F 98% 30.00 in 1.8 mi Calm Calm - N/A   Mist
4:14 AM 62.4 °F - 61.9 °F 98% 30.00 in 4.0 mi Calm Calm - N/A   Clear
4:34 AM 63.1 °F - 62.6 °F 98% 30.00 in 4.0 mi Calm Calm - N/A   Clear
4:53 AM 63.5 °F - 62.8 °F 97% 29.99 in 4.0 mi Calm Calm - N/A   Clear
5:14 AM 62.6 °F - 61.9 °F 97% 29.98 in 3.0 mi Calm Calm - N/A   Clear
5:33 AM 61.9 °F - 61.2 °F 97% 29.98 in 2.5 mi Calm Calm - N/A   Clear
5:53 AM 61.9 °F - 61.2 °F 97% 29.98 in 0.5 mi Calm Calm - N/A Fog Fog
6:14 AM 62.4 °F - 61.7 °F 97% 29.97 in 3.0 mi Calm Calm - N/A   Clear
6:34 AM 63.3 °F - 62.6 °F 97% 29.96 in 7.0 mi Calm Calm - N/A   Clear
6:53 AM 63.5 °F - 62.6 °F 97% 29.96 in 10.0 mi Calm Calm - N/A   Clear
7:14 AM 63.9 °F - 63.0 °F 97% 29.97 in 5.0 mi Calm Calm - N/A   Clear
7:34 AM 64.4 °F - 63.5 °F 97% 29.98 in 5.0 mi Calm Calm - N/A   Scattered Clouds
7:53 AM 64.4 °F - 63.5 °F 97% 29.98 in 5.0 mi Calm Calm - N/A   Clear
8:14 AM 65.5 °F - 64.4 °F 96% 29.98 in 5.0 mi Calm Calm - N/A   Clear
8:33 AM 66.6 °F - 64.4 °F 93% 29.96 in 10.0 mi Calm Calm - N/A   Scattered Clouds
8:53 AM 68.5 °F - 64.4 °F 87% 29.95 in 10.0 mi SSW 6.9 mph - N/A   Scattered Clouds
9:14 AM 70.2 °F - 63.7 °F 80% 29.94 in 10.0 mi SSW 6.9 mph - N/A   Clear
9:33 AM 72.5 °F - 64.0 °F 75% 29.93 in 10.0 mi SSW 9.2 mph - N/A   Clear
9:53 AM 75.7 °F - 64.6 °F 68% 29.93 in 10.0 mi SW 10.4 mph - N/A   Clear
10:14 AM 77.5 °F - 65.3 °F 66% 29.92 in 10.0 mi SW 9.2 mph - N/A   Clear
10:33 AM 78.1 °F - 66.4 °F 67% 29.92 in 10.0 mi SW 8.1 mph - N/A   Clear
10:53 AM 79.5 °F - 66.9 °F 65% 29.92 in 10.0 mi SW 9.2 mph - N/A   Clear
11:14 AM 81.0 °F 83.4 °F 67.5 °F 63% 29.91 in 10.0 mi SW 10.4 mph - N/A   Clear
11:34 AM 82.6 °F 85.3 °F 67.6 °F 60% 29.91 in 10.0 mi SW 12.7 mph - N/A   Clear
11:53 AM 82.8 °F 85.5 °F 67.5 °F 60% 29.90 in 10.0 mi WSW 13.8 mph 18.4 mph N/A   Clear
12:14 PM 83.5 °F 86.4 °F 67.6 °F 59% 29.90 in 10.0 mi WSW 11.5 mph 17.3 mph N/A   Scattered Clouds
12:33 PM 83.3 °F 85.9 °F 67.3 °F 58% 29.90 in 10.0 mi WSW 12.7 mph - N/A   Scattered Clouds
12:53 PM 84.2 °F 86.8 °F 66.7 °F 56% 29.89 in 10.0 mi WSW 15.0 mph 21.9 mph N/A   Mostly Cloudy
1:14 PM 85.3 °F 87.6 °F 66.2 °F 53% 29.89 in 10.0 mi SW 16.1 mph 23.0 mph N/A   Scattered Clouds
1:33 PM 85.3 °F 87.4 °F 65.8 °F 52% 29.88 in 10.0 mi WSW 13.8 mph 19.6 mph N/A   Scattered Clouds
1:53 PM 85.5 °F 87.9 °F 66.4 °F 53% 29.87 in 10.0 mi WSW 11.5 mph 17.3 mph N/A   Scattered Clouds
2:14 PM 86.0 °F 87.9 °F 65.3 °F 50% 29.86 in 10.0 mi SW 13.8 mph 23.0 mph N/A   Clear
2:33 PM 86.4 °F 88.4 °F 65.5 °F 50% 29.85 in 10.0 mi WSW 11.5 mph 18.4 mph N/A   Clear
2:53 PM 86.4 °F 88.1 °F 65.3 °F 49% 29.84 in 10.0 mi WSW 16.1 mph 23.0 mph N/A   Scattered Clouds
3:14 PM 86.5 °F 88.1 °F 64.9 °F 48% 29.82 in 10.0 mi WSW 17.3 mph 21.9 mph N/A   Clear
3:33 PM 86.2 °F 87.6 °F 64.4 °F 48% 29.81 in 10.0 mi North - - N/A   Clear
3:53 PM 86.9 °F 88.6 °F 65.1 °F 48% 29.80 in 10.0 mi WSW 15.0 mph 21.9 mph N/A   Clear
4:14 PM 86.2 °F 88.4 °F 65.8 °F 51% 29.79 in 10.0 mi SW 15.0 mph 26.5 mph N/A   Clear
4:33 PM 86.2 °F 88.4 °F 66.2 °F 51% 29.79 in 10.0 mi SW 17.3 mph 25.3 mph N/A   Clear
4:53 PM 86.9 °F 89.3 °F 66.4 °F 50% 29.78 in 10.0 mi WSW 13.8 mph 21.9 mph N/A   Clear
5:14 PM 86.0 °F 88.5 °F 66.7 °F 52% 29.77 in 10.0 mi SW 18.4 mph - N/A   Clear
5:33 PM 86.0 °F 88.5 °F 66.7 °F 52% 29.77 in 10.0 mi SW 12.7 mph 19.6 mph N/A   Clear
5:53 PM 85.8 °F 88.8 °F 67.5 °F 54% 29.77 in 10.0 mi WSW 12.7 mph 17.3 mph N/A   Scattered Clouds
6:14 PM 84.2 °F 87.1 °F 67.3 °F 57% 29.77 in 10.0 mi SW 13.8 mph 23.0 mph N/A   Scattered Clouds
6:33 PM 83.5 °F 86.4 °F 68.0 °F 59% 29.78 in 10.0 mi WSW 12.7 mph 18.4 mph N/A   Clear
6:53 PM 83.1 °F 86.3 °F 68.5 °F 61% 29.77 in 10.0 mi West 8.1 mph - N/A   Scattered Clouds
7:14 PM 82.6 °F 85.9 °F 68.7 °F 63% 29.76 in 10.0 mi SW 5.8 mph 16.1 mph N/A   Scattered Clouds
7:33 PM 81.9 °F 85.2 °F 68.9 °F 65% 29.76 in 10.0 mi SW 9.2 mph - N/A   Mostly Cloudy
7:53 PM 81.0 °F 84.1 °F 68.9 °F 67% 29.75 in 10.0 mi SSW 6.9 mph - N/A   Mostly Cloudy
8:14 PM 77.9 °F - 70.9 °F 79% 29.81 in 3.0 mi NNW 20.7 mph 29.9 mph 0.15 in Rain Heavy Rain
8:33 PM 73.8 °F - 71.6 °F 93% 29.80 in 10.0 mi NE 3.5 mph - 0.55 in Rain Light Rain
8:53 PM 73.4 °F - 71.8 °F 95% 29.80 in 4.0 mi NE 3.5 mph - 0.59 in Rain Light Rain
9:14 PM 73.9 °F - 71.8 °F 93% 29.81 in 10.0 mi Calm Calm - N/A Rain Light Rain
9:33 PM 73.4 °F - 72.0 °F 95% 29.81 in 5.0 mi Calm Calm - 0.01 in Rain Light Rain
9:53 PM 73.4 °F - 72.0 °F 95% 29.80 in 7.0 mi Calm Calm - 0.01 in Rain Light Rain
10:14 PM 72.5 °F - 71.6 °F 97% 29.80 in 5.0 mi Calm Calm - N/A   Scattered Clouds
10:33 PM 71.6 °F - 70.7 °F 97% 29.78 in 2.5 mi Calm Calm - N/A   Scattered Clouds
10:53 PM 71.4 °F - 70.7 °F 98% 29.80 in 3.0 mi South 6.9 mph - N/A   Clear
11:14 PM 71.6 °F - 70.9 °F 98% 29.80 in 4.0 mi SSW 3.5 mph - N/A   Mostly Cloudy
11:33 PM 71.4 °F - 70.7 °F 98% 29.80 in 3.0 mi Calm Calm - N/A   Overcast
11:54 PM 71.2 °F - 70.7 °F 98% 29.80 in 2.5 mi Calm Calm - N/A   Overcast